North Bend, OR

4:44 PM PDT on August 28, 2016 (GMT -0700)
North Bend Municipal

Weather History for KOTH - March, 2014

Change the Weather History Date:

Monday, March 24, 2014

  Actual Average Record
Temperature  
Mean Temperature 52 °F 48 °F  
Max Temperature 66 °F 54 °F 76 °F (1969)
Min Temperature 37 °F 42 °F 29 °F (1916)
Degree Days  
Heating Degree Days 13 17  
Month to date heating degree days 340 417  
Since 1 July heating degree days 3137 3591  
Cooling Degree Days 0 0  
Month to date cooling degree days 0 0  
Year to date cooling degree days 0 0  
Growing Degree Days 2 (Base 50)    
Moisture  
Dew Point 40 °F    
Average Humidity 70    
Maximum Humidity 100    
Minimum Humidity 36    
Precipitation  
Precipitation 0.00 in 0.23 in 1.42 in (1962)
Month to date precipitation 2.45 6.21  
Year to date precipitation 13.17 23.99  
Sea Level Pressure  
Sea Level Pressure 30.04 in    
Wind  
Wind Speed 8 mph (South)    
Max Wind Speed 20 mph    
Max Gust Speed 23 mph    
Visibility 10 miles    
Events      
T = Trace of Precipitation, MM = Missing Value Source: NWS Daily Summary

Daily Weather History Graph

Daily Weather History Graph

Search for Another Location

Airport or City:

Trip Planner

Search our weather history database for the weather conditions in past years. The results will help you decide how hot, cold, wet, or windy it might be!

Date:

Astronomy

Mar. 24, 2014 Rise Set
Actual Time 7:12 AM PDT 7:34 PM PDT
Civil Twilight 6:44 AM PDT 8:02 PM PDT
Nautical Twilight 6:10 AM PDT 8:36 PM PDT
Astronomical Twilight 5:36 AM PDT 9:11 PM PDT
Moon 2:57 AM PDT (3/24) 12:56 PM PDT (3/24)
Length of Visible Light 13h 18m
Length of Day
12h 21m
Last Quarter, 42% of the Moon is Illuminated
Mar 24
Last Quarter
Mar 30
New
Apr 7
First Quarter
Apr 15
Full
Apr 22
Last Quarter

Hourly Weather History & Observations

Time (PDT) Temp. Windchill Dew Point Humidity Pressure Visibility Wind Dir Wind Speed Gust Speed Precip Events Conditions
12:15 AM 44.6 °F - 44.6 °F 100% 30.14 in 10.0 mi Calm Calm - N/A   Clear
12:35 AM 42.8 °F 39.3 °F 42.8 °F 100% 30.13 in 10.0 mi SE 5.8 mph - N/A   Clear
12:55 AM 42.8 °F 40.1 °F 42.8 °F 100% 30.13 in 10.0 mi SE 4.6 mph - N/A   Clear
1:15 AM 42.8 °F 40.1 °F 41.0 °F 93% 30.12 in 10.0 mi SE 4.6 mph - N/A   Clear
1:35 AM 42.8 °F 41.1 °F 41.0 °F 93% 30.12 in 10.0 mi SE 3.5 mph - N/A   Clear
1:55 AM 42.8 °F 38.6 °F 42.8 °F 100% 30.11 in 10.0 mi ESE 6.9 mph - N/A   Clear
2:15 AM 42.8 °F - 41.0 °F 93% 30.10 in 10.0 mi Calm Calm - N/A   Clear
2:35 AM 42.8 °F 40.1 °F 42.8 °F 100% 30.10 in 10.0 mi ESE 4.6 mph - N/A   Clear
2:55 AM 41.0 °F 38.0 °F 41.0 °F 100% 30.09 in 10.0 mi SE 4.6 mph - N/A   Clear
3:15 AM 41.0 °F 39.0 °F 41.0 °F 100% 30.09 in 10.0 mi ESE 3.5 mph - N/A   Clear
3:35 AM 39.2 °F 37.0 °F 39.2 °F 100% 30.07 in 10.0 mi ESE 3.5 mph - N/A   Clear
3:55 AM 42.8 °F 39.3 °F 42.8 °F 100% 30.07 in 10.0 mi ESE 5.8 mph - N/A   Clear
4:15 AM 41.0 °F 38.0 °F 41.0 °F 100% 30.06 in 10.0 mi SE 4.6 mph - N/A   Clear
4:35 AM 41.0 °F - 41.0 °F 100% 30.07 in 10.0 mi Calm Calm - N/A   Clear
4:55 AM 42.8 °F - 42.8 °F 100% 30.07 in 10.0 mi Calm Calm - N/A   Clear
5:15 AM 39.2 °F - 37.4 °F 93% 30.07 in 10.0 mi Calm Calm - N/A   Clear
5:35 AM 37.4 °F 33.8 °F 37.4 °F 100% 30.06 in 10.0 mi SSE 4.6 mph - N/A   Clear
5:55 AM 39.2 °F 33.6 °F 39.2 °F 100% 30.06 in 10.0 mi SE 8.1 mph - N/A   Clear
6:15 AM 41.0 °F 37.1 °F 39.2 °F 93% 30.06 in 10.0 mi SSE 5.8 mph - N/A   Clear
6:35 AM 39.2 °F 37.0 °F 39.2 °F 100% 30.06 in 10.0 mi South 3.5 mph - N/A   Clear
6:55 AM 39.2 °F 33.6 °F 37.4 °F 93% 30.06 in 10.0 mi ESE 8.1 mph - N/A   Clear
7:15 AM 41.0 °F 35.2 °F 39.2 °F 93% 30.06 in 10.0 mi SE 9.2 mph - N/A   Clear
7:35 AM 41.0 °F 35.8 °F 41.0 °F 100% 30.06 in 10.0 mi SE 8.1 mph - N/A   Clear
7:55 AM 41.0 °F - 39.2 °F 93% 30.07 in 10.0 mi Calm Calm - N/A   Clear
8:15 AM 44.6 °F 43.1 °F 42.8 °F 93% 30.07 in 10.0 mi WSW 3.5 mph - N/A   Clear
8:35 AM 44.6 °F - 42.8 °F 93% 30.08 in 10.0 mi Calm Calm - N/A   Clear
8:55 AM 48.2 °F - 44.6 °F 87% 30.08 in 10.0 mi Calm Calm - N/A   Clear
9:15 AM 46.4 °F 44.3 °F 42.8 °F 87% 30.09 in 10.0 mi SE 4.6 mph - N/A   Clear
9:35 AM 48.2 °F - 44.6 °F 87% 30.09 in 10.0 mi SSE 3.5 mph - N/A   Clear
9:55 AM 51.8 °F - 46.4 °F 82% 30.09 in 10.0 mi ESE 5.8 mph - N/A   Clear
10:15 AM 51.8 °F - 44.6 °F 76% 30.09 in 10.0 mi ESE 5.8 mph - N/A   Clear
10:35 AM 53.6 °F - 42.8 °F 67% 30.09 in 10.0 mi ESE 6.9 mph - N/A   Clear
10:55 AM 55.4 °F - 44.6 °F 67% 30.09 in 10.0 mi ESE 4.6 mph - N/A   Clear
11:15 AM 57.2 °F - 46.4 °F 67% 30.08 in 10.0 mi East 3.5 mph - N/A   Clear
11:35 AM 59.0 °F - 44.6 °F 59% 30.08 in 10.0 mi ESE 4.6 mph - N/A   Clear
11:55 AM 57.2 °F - 46.4 °F 67% 30.08 in 10.0 mi NW 5.8 mph - N/A   Clear
12:15 PM 57.2 °F - 50.0 °F 77% 30.08 in 10.0 mi West 11.5 mph - N/A   Clear
12:35 PM 57.2 °F - 48.2 °F 72% 30.09 in 10.0 mi WSW 13.8 mph - N/A   Clear
12:55 PM 59.0 °F - 46.4 °F 63% 30.09 in 10.0 mi WSW 12.7 mph - N/A   Clear
1:15 PM 60.8 °F - 42.8 °F 52% 30.08 in 10.0 mi SW 18.4 mph 24.2 mph N/A   Clear
1:35 PM 62.6 °F - 42.8 °F 48% 30.08 in 10.0 mi WSW 16.1 mph 24.2 mph N/A   Clear
1:55 PM 60.8 °F - 39.2 °F 45% 30.07 in 10.0 mi SW 10.4 mph 20.7 mph N/A   Clear
2:15 PM 60.8 °F - 35.6 °F 39% 30.07 in 10.0 mi WSW 11.5 mph 23.0 mph N/A   Clear
2:35 PM 62.6 °F - 37.4 °F 39% 30.06 in 10.0 mi SW 9.2 mph 20.7 mph N/A   Clear
2:55 PM 62.6 °F - 35.6 °F 37% 30.05 in 10.0 mi WSW 11.5 mph 21.9 mph N/A   Clear
3:15 PM 62.6 °F - 35.6 °F 37% 30.04 in 10.0 mi WSW 12.7 mph 20.7 mph N/A   Clear
3:35 PM 64.4 °F - 35.6 °F 34% 30.02 in 10.0 mi South 11.5 mph 17.3 mph N/A   Clear
3:55 PM 66.2 °F - 39.2 °F 37% 29.99 in 10.0 mi SE 10.4 mph - N/A   Clear
4:15 PM 66.2 °F - 37.4 °F 35% 30.00 in 10.0 mi WNW 3.5 mph - N/A   Clear
4:35 PM 62.6 °F - 41.0 °F 45% 29.99 in 10.0 mi West 8.1 mph - N/A   Clear
4:55 PM 62.6 °F - 41.0 °F 45% 29.97 in 10.0 mi West 10.4 mph - N/A   Clear
5:15 PM 62.6 °F - 39.2 °F 42% 29.96 in 10.0 mi WSW 6.9 mph - N/A   Clear
5:35 PM 64.4 °F - 41.0 °F 42% 29.95 in 10.0 mi West 9.2 mph - N/A   Clear
5:55 PM 59.0 °F - 41.0 °F 51% 29.95 in 10.0 mi West 19.6 mph 23.0 mph N/A   Clear
6:15 PM 57.2 °F - 41.0 °F 55% 29.96 in 10.0 mi WSW 21.9 mph 29.9 mph N/A   Clear
6:35 PM 55.4 °F - 41.0 °F 58% 29.97 in 10.0 mi WSW 17.3 mph - N/A   Clear
6:55 PM 55.4 °F - 39.2 °F 54% 29.98 in 10.0 mi SW 9.2 mph 19.6 mph N/A   Clear
7:15 PM 55.4 °F - 37.4 °F 51% 29.99 in 10.0 mi WSW 6.9 mph - N/A   Clear
7:35 PM 53.6 °F - 39.2 °F 58% 29.98 in 10.0 mi SSW 4.6 mph - N/A   Clear
7:55 PM 53.6 °F - 39.2 °F 58% 29.98 in 10.0 mi South 9.2 mph - N/A   Clear
8:15 PM 53.6 °F - 39.2 °F 58% 29.97 in 10.0 mi South 4.6 mph - N/A   Clear
8:35 PM 53.6 °F - 37.4 °F 54% 29.97 in 10.0 mi South 9.2 mph - N/A   Clear
8:55 PM 55.4 °F - 30.2 °F 38% 29.96 in 10.0 mi South 12.7 mph 17.3 mph N/A   Clear
9:15 PM 55.4 °F - 30.2 °F 38% 29.96 in 10.0 mi South 9.2 mph - N/A   Partly Cloudy
9:35 PM 55.4 °F - 30.2 °F 38% 29.95 in 10.0 mi South 6.9 mph - N/A   Partly Cloudy
9:55 PM 55.4 °F - 30.2 °F 38% 29.95 in 10.0 mi South 6.9 mph - N/A   Partly Cloudy
10:15 PM 55.4 °F - 30.2 °F 38% 29.94 in 10.0 mi South 6.9 mph - N/A   Partly Cloudy
10:35 PM 55.4 °F - 28.4 °F 36% 29.93 in 10.0 mi South 4.6 mph - N/A   Partly Cloudy
10:55 PM 53.6 °F - 39.2 °F 58% 29.93 in 10.0 mi ESE 8.1 mph - N/A   Mostly Cloudy
11:15 PM 51.8 °F - 41.0 °F 67% 29.92 in 10.0 mi SE 6.9 mph - N/A   Overcast
11:35 PM 53.6 °F - 37.4 °F 54% 29.91 in 10.0 mi SE 5.8 mph - N/A   Overcast
11:55 PM 51.8 °F - 39.2 °F 62% 29.91 in 10.0 mi SSE 4.6 mph - N/A   Overcast